Time,TemperatureF,DewpointF,PressureIn,WindDirection,WindDirectionDegrees,WindSpeedMPH,WindSpeedGustMPH,Humidity,HourlyPrecipIn,Conditions,Clouds,dailyrainin,SoftwareType,DateUTC
2013-11-18 00:23:00,45.0,42.0,29.29,WSW,241,2.0,15.0,90,0.02,,,0.81,,2013-11-18 05:23:00,
2013-11-18 00:43:00,45.0,42.0,29.30,SW,219,4.0,12.0,90,0.01,,,0.80,,2013-11-18 05:43:00,
2013-11-18 00:53:00,46.0,43.0,29.33,WNW,286,6.0,13.0,90,0.00,,,0.77,,2013-11-18 05:53:00,
2013-11-18 01:22:00,46.0,41.0,29.35,West,259,12.0,14.0,83,0.00,,,0.75,,2013-11-18 06:22:00,
2013-11-18 01:42:00,46.0,41.0,29.37,WNW,284,10.0,14.0,82,0.00,,,0.75,,2013-11-18 06:42:00,
2013-11-18 01:52:00,46.0,41.0,29.37,West,271,4.0,15.0,81,0.00,,,0.75,,2013-11-18 06:52:00,
2013-11-18 02:21:00,45.0,39.0,29.40,WNW,290,3.0,18.0,78,0.00,,,0.75,,2013-11-18 07:21:00,
2013-11-18 02:42:00,45.0,39.0,29.41,West,273,3.0,12.0,78,0.00,,,0.74,,2013-11-18 07:42:00,
2013-11-18 02:52:00,45.0,38.0,29.42,WNW,298,5.0,13.0,77,0.00,,,0.74,,2013-11-18 07:52:00,
2013-11-18 03:01:00,45.0,38.0,29.42,WNW,298,5.0,13.0,77,0.00,,,0.74,,2013-11-18 08:01:00,
2013-11-18 03:22:00,45.0,38.0,29.43,West,273,5.0,17.0,76,0.00,,,0.74,,2013-11-18 08:22:00,
2013-11-18 03:52:00,45.0,37.0,29.44,WNW,284,4.0,7.0,74,0.00,,,0.73,,2013-11-18 08:52:00,
2013-11-18 04:12:00,45.0,38.0,29.46,West,275,0.0,12.0,76,0.00,,,0.72,,2013-11-18 09:12:00,
2013-11-18 04:22:00,45.0,38.0,29.46,WNW,295,10.0,16.0,75,0.00,,,0.72,,2013-11-18 09:22:00,
2013-11-18 04:33:00,45.0,38.0,29.46,WNW,295,10.0,16.0,75,0.00,,,0.72,,2013-11-18 09:33:00,
2013-11-18 04:53:00,44.0,36.0,29.47,West,266,6.0,14.0,73,0.00,,,0.72,,2013-11-18 09:53:00,
2013-11-18 05:23:00,44.0,35.0,29.49,SW,234,3.0,9.0,71,0.00,,,0.72,,2013-11-18 10:23:00,
2013-11-18 05:53:00,43.0,34.0,29.50,WSW,248,4.0,12.0,70,0.00,,,0.72,,2013-11-18 10:53:00,
2013-11-18 06:22:00,43.0,34.0,29.51,WNW,286,4.0,11.0,70,0.01,,,0.73,,2013-11-18 11:22:00,
2013-11-18 06:52:00,42.0,34.0,29.52,West,276,7.0,15.0,72,0.01,,,0.73,,2013-11-18 11:52:00,
2013-11-18 07:12:00,42.0,34.0,29.53,WNW,295,4.0,13.0,73,0.01,,,0.73,,2013-11-18 12:12:00,
2013-11-18 07:22:00,42.0,34.0,29.54,WNW,282,0.0,13.0,74,0.00,,,0.73,,2013-11-18 12:22:00,
2013-11-18 07:42:00,42.0,34.0,29.53,South,186,0.0,13.0,72,0.00,,,0.73,,2013-11-18 12:42:00,
2013-11-18 07:52:00,42.0,34.0,29.54,WSW,254,5.0,13.0,72,0.00,,,0.73,,2013-11-18 12:52:00,
2013-11-18 08:11:00,41.0,32.0,29.55,WNW,287,2.0,13.0,70,0.00,,,0.73,,2013-11-18 13:11:00,
2013-11-18 08:22:00,41.0,32.0,29.55,West,268,18.0,18.0,69,0.00,,,0.73,,2013-11-18 13:22:00,
2013-11-18 08:42:00,41.0,32.0,29.56,West,263,7.0,17.0,70,0.00,,,0.73,,2013-11-18 13:42:00,
2013-11-18 08:52:00,41.0,33.0,29.57,West,266,3.0,7.0,73,0.00,,,0.73,,2013-11-18 13:52:00,
2013-11-18 09:22:00,40.0,32.0,29.59,WNW,284,2.0,19.0,72,0.00,,,0.73,,2013-11-18 14:22:00,
2013-11-18 09:52:00,40.0,31.0,29.60,WNW,290,7.0,18.0,71,0.00,,,0.73,,2013-11-18 14:52:00,
2013-11-18 10:22:00,39.0,31.0,29.62,WNW,300,6.0,16.0,72,0.00,,,0.73,,2013-11-18 15:22:00,
2013-11-18 10:43:00,38.0,29.0,29.63,WNW,285,7.0,14.0,70,0.00,,,0.73,,2013-11-18 15:43:00,
2013-11-18 10:53:00,38.0,29.0,29.64,WSW,246,6.0,19.0,71,0.00,,,0.73,,2013-11-18 15:53:00,
2013-11-18 11:23:00,39.0,30.0,29.65,West,276,0.0,7.0,71,0.00,,,0.73,,2013-11-18 16:23:00,
2013-11-18 11:43:00,39.0,30.0,29.65,WNW,282,2.0,10.0,71,0.00,,,0.73,,2013-11-18 16:43:00,
2013-11-18 11:52:00,39.0,31.0,29.66,WNW,288,0.0,17.0,72,0.00,,,0.73,,2013-11-18 16:52:00,
2013-11-18 12:22:00,38.0,30.0,29.68,NW,326,7.0,18.0,74,0.00,,,0.73,,2013-11-18 17:22:00,
2013-11-18 12:43:00,38.0,30.0,29.67,WSW,244,6.0,15.0,74,0.00,,,0.73,,2013-11-18 17:43:00,
2013-11-18 12:52:00,38.0,31.0,29.69,NW,304,1.0,11.0,75,0.00,,,0.73,,2013-11-18 17:52:00,
2013-11-18 13:23:00,37.0,30.0,29.70,SW,218,1.0,10.0,76,0.00,,,0.73,,2013-11-18 18:23:00,
2013-11-18 13:52:00,37.0,28.0,29.72,NNW,338,3.0,16.0,70,0.00,,,0.73,,2013-11-18 18:52:00,
2013-11-18 14:22:00,37.0,28.0,29.74,WNW,291,6.0,17.0,69,0.00,,,0.73,,2013-11-18 19:22:00,
2013-11-18 14:42:00,37.0,27.0,29.75,West,271,9.0,18.0,67,0.00,,,0.73,,2013-11-18 19:42:00,
2013-11-18 15:22:00,37.0,27.0,29.77,West,269,5.0,21.0,66,0.00,,,0.73,,2013-11-18 20:22:00,
2013-11-18 15:42:00,37.0,27.0,29.79,NW,315,2.0,11.0,67,0.00,,,0.73,,2013-11-18 20:42:00,
2013-11-18 15:52:00,37.0,27.0,29.80,WNW,292,6.0,18.0,67,0.00,,,0.73,,2013-11-18 20:52:00,
2013-11-18 16:22:00,37.0,27.0,29.81,WNW,295,7.0,15.0,68,0.00,,,0.73,,2013-11-18 21:22:00,
2013-11-18 16:54:00,36.0,26.0,29.84,West,271,9.0,10.0,68,0.00,,,0.65,,2013-11-18 21:54:00,
2013-11-18 17:22:00,36.0,27.0,29.85,WSW,247,4.0,9.0,69,0.00,,,0.33,,2013-11-18 22:22:00,
2013-11-18 17:52:00,36.0,27.0,29.87,West,259,7.0,8.0,69,0.00,,,0.25,,2013-11-18 22:52:00,
2013-11-18 18:21:00,36.0,27.0,29.89,West,276,0.0,9.0,69,0.00,,,0.17,,2013-11-18 23:21:00,
2013-11-18 18:42:00,36.0,26.0,29.90,West,275,0.0,11.0,68,0.00,,,0.16,,2013-11-18 23:42:00,
2013-11-18 18:52:00,36.0,26.0,29.91,West,275,0.0,3.0,68,0.00,,,0.16,,2013-11-18 23:52:00,
2013-11-18 19:11:00,36.0,26.0,29.92,WNW,285,4.0,6.0,68,0.00,,,0.16,,2013-11-19 00:11:00,
2013-11-18 19:22:00,36.0,26.0,29.92,WNW,285,4.0,6.0,68,0.00,,,0.16,,2013-11-19 00:22:00,
2013-11-18 19:42:00,36.0,26.0,29.93,SW,236,0.0,4.0,68,0.00,,,0.16,,2013-11-19 00:42:00,
2013-11-18 19:52:00,36.0,26.0,29.94,WNW,283,1.0,7.0,67,0.00,,,0.16,,2013-11-19 00:52:00,
2013-11-18 20:21:00,36.0,25.0,29.96,WNW,293,0.0,6.0,65,0.00,,,0.16,,2013-11-19 01:21:00,
2013-11-18 20:42:00,36.0,25.0,29.96,WNW,288,3.0,10.0,65,0.00,,,0.16,,2013-11-19 01:42:00,
2013-11-18 20:52:00,36.0,25.0,29.97,North,5,0.0,5.0,65,0.00,,,0.16,,2013-11-19 01:52:00,
2013-11-18 21:22:00,36.0,25.0,29.98,WNW,302,0.0,5.0,64,0.00,,,0.16,,2013-11-19 02:22:00,
2013-11-18 21:32:00,36.0,25.0,29.98,WNW,302,0.0,5.0,64,0.00,,,0.16,,2013-11-19 02:32:00,
2013-11-18 21:42:00,36.0,25.0,29.98,WNW,302,0.0,5.0,64,0.00,,,0.16,,2013-11-19 02:42:00,
2013-11-18 21:52:00,36.0,26.0,29.99,NW,319,0.0,6.0,66,0.00,,,0.16,,2013-11-19 02:52:00,
2013-11-18 22:22:00,36.0,26.0,30.01,NW,307,0.0,1.0,66,0.00,,,0.15,,2013-11-19 03:22:00,
2013-11-18 22:33:00,36.0,26.0,30.01,NW,307,0.0,1.0,66,0.00,,,0.15,,2013-11-19 03:33:00,
2013-11-18 22:54:00,36.0,26.0,30.01,NW,317,0.0,4.0,67,0.00,,,0.10,,2013-11-19 03:54:00,
2013-11-18 23:13:00,36.0,26.0,30.01,West,265,0.0,10.0,67,0.00,,,0.05,,2013-11-19 04:13:00,
2013-11-18 23:24:00,36.0,26.0,30.02,West,272,3.0,7.0,68,0.00,,,0.03,,2013-11-19 04:24:00,
2013-11-18 23:42:00,36.0,26.0,30.03,WSW,242,0.0,3.0,68,0.00,,,0.02,,2013-11-19 04:42:00,
2013-11-18 23:52:00,36.0,26.0,30.04,WNW,285,3.0,4.0,68,0.00,,,0.01,,2013-11-19 04:52:00,